Location: Chenereilles
(45.4866°N, 4.0790°E)
Time: 18:04:32
(UTC+00:00)

Envisat - Pass Details

Date: 12 November 2019
Orbit: 764 x 766 km, 98.1° (Epoch: 07 December)

Event Time Altitude Azimuth Distance (km) Brightness Sun altitude
Rises 16:36:34 0° 132° (SE) 3,224 6.0 -4.0°
Reaches altitude 10° 16:39:09 10° 121° (ESE) 2,302 5.1 -4.4°
Maximum altitude 16:43:22 27° 64° (ENE) 1,440 3.9 -5.1°
Drops below altitude 10° 16:47:36 10° 8° (N) 2,314 5.2 -5.8°
Sets 16:50:12 0° 357° (N) 3,244 6.1 -6.2°
